User: anonymous   Login
Location: Shades State Park
(39.9310°N, 87.0690°W)
Time: 01:30:22
(UTC-04:00)
Language:

H-2A R/B - Orbit

View from above orbital plane
View from above orbital plane
View from above satellite
View from above satellite

Ground track
Ground track

The orbit data is extracted from the following two-line orbital elements,

1 27601U 02056E   17112.85932942 +.00000074 +00000-0 +42012-4 0  9997
2 27601 098.3803 182.5558 0073458 099.5286 031.7464 14.31775328749892
Epoch (UTC): 22 April 2017 20:37:26
Eccentricity: 0.0073458
inclination: 98.3803°
perigee height: 733 km
apogee height: 838 km
right ascension of ascending node: 182.5558°
argument of perigee: 99.5286°
revolutions per day: 14.31775328
mean anomaly at epoch: 31.7464°
orbit number at epoch: 74989

The dashed part of the orbit path shows where the satellite is in the earth's shadow,  

DLR